Location: Hancock Field Station
(44.9202°N, 120.4259°W)
Time: 09:26:32
(UTC-08:00)

Nadezhda 4 Rocket - Visible Passes

Search period start: 24 January 2017 00:00
Search period end: 03 February 2017 00:00
Orbit: 951 x 991 km, 82.9° (Epoch: 22 January)

Date Brightness Start Highest point End Pass type
(mag) Time Alt. Az. Time Alt. Az. Time Alt. Az.
24 Jan 6.9 03:38:49 10° NE 03:40:14 11° ENE 03:41:39 10° ENE visible
24 Jan 4.4 05:20:37 10° N 05:26:55 63° ENE 05:33:08 10° SSE visible
24 Jan 4.3 18:51:22 10° SSW 18:57:37 70° W 19:03:57 10° N visible
24 Jan 6.8 20:41:52 10° W 20:44:11 12° WNW 20:46:31 10° NW visible
25 Jan 6.4 04:00:41 10° NNE 04:04:59 19° ENE 04:09:14 10° ESE visible
25 Jan 3.9 05:44:42 10° N 05:51:03 78° W 05:57:17 10° S visible
25 Jan 4.6 17:31:12 10° SSE 17:36:44 34° E 17:42:18 10° NNE visible
25 Jan 5.2 19:15:59 10° SW 19:21:52 41° WNW 19:27:51 10° N visible
26 Jan 5.7 04:23:59 10° N 04:29:32 31° ENE 04:34:59 10° SE visible
26 Jan 4.3 06:09:01 10° NNW 06:14:59 46° W 06:20:54 10° SSW visible
26 Jan 4.1 17:54:28 10° S 18:00:35 58° E 18:06:47 10° NNE visible
26 Jan 6.1 19:41:14 10° WSW 19:46:18 25° WNW 19:51:26 10° NNW visible
27 Jan 4.8 04:47:43 10° N 04:53:53 51° ENE 04:59:57 10° SSE visible
27 Jan 4.9 06:33:39 10° NNW 06:38:47 27° W 06:43:53 10° SW visible
27 Jan 4.1 18:18:19 10° S 18:24:37 85° W 18:31:00 10° N visible
27 Jan 6.7 20:07:27 10° W 20:10:56 15° WNW 20:14:26 10° NNW visible
28 Jan 6.6 03:28:15 10° NNE 03:31:46 15° ENE 03:35:15 10° E visible
28 Jan 4.0 05:11:42 10° N 05:18:03 86° E 05:24:19 10° S visible
28 Jan 4.9 18:42:43 10° SSW 18:48:48 51° WNW 18:54:59 10° N visible
29 Jan 5.9 03:51:16 10° NNE 03:56:23 25° ENE 04:01:26 10° ESE visible
29 Jan 4.0 05:35:56 10° NNW 05:42:05 57° W 05:48:09 10° SSW visible
29 Jan 5.8 19:07:41 10° SW 19:13:10 31° WNW 19:18:42 10° N visible
30 Jan 5.1 04:14:51 10° N 04:20:48 42° ENE 04:26:40 10° SE visible
30 Jan 4.6 06:00:25 10° NNW 06:05:56 33° W 06:11:24 10° SSW visible
30 Jan 4.0 17:45:22 10° S 17:51:38 79° E 17:58:00 10° N visible
30 Jan 6.5 19:33:27 10° WSW 19:37:42 19° WNW 19:42:00 10° NNW visible
31 Jan 6.7 02:56:10 10° NE 02:58:31 12° ENE 03:00:49 10° E visible
31 Jan 4.2 04:38:45 10° N 04:45:04 70° E 04:51:16 10° SSE visible
31 Jan 5.2 06:25:23 10° NW 06:29:39 19° W 06:33:52 10° SW visible
31 Jan 4.6 18:09:32 10° SSW 18:15:46 63° W 18:22:05 10° N visible
31 Jan 6.9 20:01:06 10° WNW 20:02:27 11° WNW 20:03:49 10° NW visible
01 Feb 6.2 03:18:37 10° NNE 03:23:13 21° ENE 03:27:44 10° ESE visible
01 Feb 3.9 05:02:53 10° NNW 05:09:09 70° W 05:15:19 10° S visible
01 Feb 5.5 18:34:16 10° SW 18:40:03 37° WNW 18:45:55 10° N visible
02 Feb 5.4 03:42:03 10° N 03:47:43 34° ENE 03:53:18 10° SE visible
02 Feb 4.3 05:27:15 10° NNW 05:33:04 41° W 05:38:49 10° SSW visible
02 Feb 6.3 18:59:41 10° WSW 19:04:31 23° WNW 19:09:25 10° NNW visible
